Time,TemperatureF,DewpointF,PressureIn,WindDirection,WindDirectionDegrees,WindSpeedMPH,WindSpeedGustMPH,Humidity,HourlyPrecipIn,Conditions,Clouds,dailyrainin,SoftwareType,DateUTC
2013-08-10 00:01:00,75.5,71.0,30.00,SE,136,0.0,1.0,87,0.00,,,0.00,weatherlink.com 1.10,2013-08-10 04:01:00,
2013-08-10 00:16:00,75.4,72.0,30.00,ENE,64,1.0,4.0,88,0.00,,,0.00,weatherlink.com 1.10,2013-08-10 04:16:00,
2013-08-10 00:31:00,75.3,72.0,30.00,East,100,0.0,2.0,88,0.00,,,0.00,weatherlink.com 1.10,2013-08-10 04:31:00,
2013-08-10 00:46:00,74.9,72.0,30.00,East,98,0.0,1.0,90,0.00,,,0.00,weatherlink.com 1.10,2013-08-10 04:46:00,
2013-08-10 01:01:00,74.4,72.0,30.00,SE,128,0.0,3.0,91,0.00,,,0.00,weatherlink.com 1.10,2013-08-10 05:01:00,
2013-08-10 01:16:00,74.2,72.0,30.00,SE,128,0.0,1.0,92,0.00,,,0.00,weatherlink.com 1.10,2013-08-10 05:16:00,
2013-08-10 01:31:00,74.1,71.0,30.00,ENE,63,0.0,6.0,91,0.00,,,0.00,weatherlink.com 1.10,2013-08-10 05:31:00,
2013-08-10 01:46:00,74.1,71.0,30.00,NE,44,0.0,4.0,91,0.00,,,0.00,weatherlink.com 1.10,2013-08-10 05:46:00,
2013-08-10 02:01:00,73.9,71.0,30.00,NE,44,0.0,2.0,91,0.00,,,0.00,weatherlink.com 1.10,2013-08-10 06:01:00,
2013-08-10 02:16:00,73.8,71.0,30.00,NE,50,0.0,3.0,91,0.00,,,0.00,weatherlink.com 1.10,2013-08-10 06:16:00,
2013-08-10 02:31:00,73.5,71.0,30.00,NE,50,0.0,0.0,92,0.00,,,0.00,weatherlink.com 1.10,2013-08-10 06:31:00,
2013-08-10 02:46:00,73.4,71.0,29.99,NE,50,0.0,0.0,92,0.00,,,0.00,weatherlink.com 1.10,2013-08-10 06:46:00,
2013-08-10 03:02:00,73.0,71.0,29.99,NE,50,0.0,1.0,93,0.00,,,0.00,weatherlink.com 1.10,2013-08-10 07:02:00,
2013-08-10 03:17:00,72.5,70.0,29.99,NE,50,0.0,1.0,92,0.00,,,0.00,weatherlink.com 1.10,2013-08-10 07:17:00,
2013-08-10 03:32:00,72.5,70.0,29.99,NE,50,0.0,1.0,92,0.00,,,0.00,weatherlink.com 1.10,2013-08-10 07:32:00,
2013-08-10 03:47:00,72.4,70.0,29.99,NE,50,0.0,1.0,93,0.00,,,0.00,weatherlink.com 1.10,2013-08-10 07:47:00,
2013-08-10 04:02:00,72.4,71.0,29.99,NE,50,0.0,2.0,94,0.00,,,0.00,weatherlink.com 1.10,2013-08-10 08:02:00,
2013-08-10 04:17:00,72.1,71.0,29.99,NE,50,0.0,1.0,95,0.00,,,0.00,weatherlink.com 1.10,2013-08-10 08:17:00,
2013-08-10 04:32:00,71.8,71.0,29.99,East,99,3.0,3.0,96,0.00,,,0.00,weatherlink.com 1.10,2013-08-10 08:32:00,
2013-08-10 04:47:00,71.8,71.0,29.99,East,99,0.0,2.0,96,0.00,,,0.00,weatherlink.com 1.10,2013-08-10 08:47:00,
2013-08-10 05:02:00,71.7,71.0,29.99,East,99,0.0,2.0,96,0.00,,,0.00,weatherlink.com 1.10,2013-08-10 09:02:00,
2013-08-10 05:17:00,71.5,70.0,29.98,East,99,1.0,2.0,96,0.00,,,0.00,weatherlink.com 1.10,2013-08-10 09:17:00,
2013-08-10 05:32:00,71.3,70.0,29.99,East,99,0.0,2.0,97,0.00,,,0.00,weatherlink.com 1.10,2013-08-10 09:32:00,
2013-08-10 05:47:00,71.2,70.0,29.99,East,99,1.0,1.0,97,0.00,,,0.00,weatherlink.com 1.10,2013-08-10 09:47:00,
2013-08-10 06:02:00,71.3,71.0,30.00,East,99,0.0,0.0,98,0.00,,,0.00,weatherlink.com 1.10,2013-08-10 10:02:00,
2013-08-10 06:17:00,71.7,71.0,30.00,East,99,0.0,0.0,98,0.00,,,0.00,weatherlink.com 1.10,2013-08-10 10:17:00,
2013-08-10 06:32:00,71.8,71.0,30.00,East,99,0.0,0.0,98,0.00,,,0.00,weatherlink.com 1.10,2013-08-10 10:32:00,
2013-08-10 06:47:00,71.7,71.0,30.01,East,99,0.0,0.0,97,0.00,,,0.00,weatherlink.com 1.10,2013-08-10 10:47:00,
2013-08-10 07:02:00,71.4,71.0,30.01,East,99,0.0,1.0,97,0.00,,,0.00,weatherlink.com 1.10,2013-08-10 11:02:00,
2013-08-10 07:17:00,71.1,70.0,30.01,East,99,0.0,0.0,97,0.00,,,0.00,weatherlink.com 1.10,2013-08-10 11:17:00,
2013-08-10 07:32:00,70.9,70.0,30.01,East,99,0.0,1.0,97,0.00,,,0.00,weatherlink.com 1.10,2013-08-10 11:32:00,
2013-08-10 07:47:00,70.8,70.0,30.02,East,99,1.0,1.0,98,0.00,,,0.00,weatherlink.com 1.10,2013-08-10 11:47:00,
2013-08-10 08:02:00,71.0,70.0,30.02,East,99,0.0,0.0,98,0.00,,,0.00,weatherlink.com 1.10,2013-08-10 12:02:00,
2013-08-10 08:17:00,71.4,71.0,30.02,East,99,0.0,0.0,99,0.00,,,0.00,weatherlink.com 1.10,2013-08-10 12:17:00,
2013-08-10 08:32:00,71.7,71.0,30.03,East,99,0.0,0.0,98,0.00,,,0.00,weatherlink.com 1.10,2013-08-10 12:32:00,
2013-08-10 08:47:00,72.1,71.0,30.03,East,99,0.0,0.0,97,0.00,,,0.00,weatherlink.com 1.10,2013-08-10 12:47:00,
2013-08-10 09:02:00,72.8,71.0,30.03,East,99,0.0,1.0,95,0.00,,,0.00,weatherlink.com 1.10,2013-08-10 13:02:00,
2013-08-10 09:17:00,73.5,72.0,30.04,East,99,0.0,2.0,94,0.00,,,0.00,weatherlink.com 1.10,2013-08-10 13:17:00,
2013-08-10 09:32:00,74.5,72.0,30.03,East,99,1.0,1.0,92,0.00,,,0.00,weatherlink.com 1.10,2013-08-10 13:32:00,
2013-08-10 09:47:00,75.6,73.0,30.03,NE,56,3.0,5.0,90,0.00,,,0.00,weatherlink.com 1.10,2013-08-10 13:47:00,
2013-08-10 10:02:00,76.0,73.0,30.03,NE,43,1.0,5.0,89,0.00,,,0.00,weatherlink.com 1.10,2013-08-10 14:02:00,
2013-08-10 10:17:00,76.7,73.0,30.04,NE,43,3.0,4.0,89,0.00,,,0.00,weatherlink.com 1.10,2013-08-10 14:17:00,
2013-08-10 10:32:00,76.7,73.0,30.03,NNW,345,1.0,4.0,88,0.00,,,0.00,weatherlink.com 1.10,2013-08-10 14:32:00,
2013-08-10 10:47:00,76.7,73.0,30.03,ENE,58,3.0,4.0,89,0.00,,,0.00,weatherlink.com 1.10,2013-08-10 14:47:00,
2013-08-10 11:02:00,76.7,73.0,30.03,NNE,17,2.0,7.0,89,0.00,,,0.00,weatherlink.com 1.10,2013-08-10 15:02:00,
2013-08-10 11:17:00,76.2,74.0,30.04,West,279,0.0,4.0,91,0.00,,,0.00,weatherlink.com 1.10,2013-08-10 15:17:00,
2013-08-10 11:32:00,76.8,73.0,30.04,North,349,2.0,8.0,87,0.00,,,0.00,weatherlink.com 1.10,2013-08-10 15:32:00,
2013-08-10 11:47:00,77.0,73.0,30.04,NW,315,1.0,5.0,87,0.00,,,0.00,weatherlink.com 1.10,2013-08-10 15:47:00,
2013-08-10 12:02:00,78.2,73.0,30.04,North,5,4.0,5.0,85,0.00,,,0.00,weatherlink.com 1.10,2013-08-10 16:02:00,
2013-08-10 12:17:00,77.7,73.0,30.03,ENE,74,1.0,11.0,85,0.00,,,0.00,weatherlink.com 1.10,2013-08-10 16:17:00,
2013-08-10 12:32:00,78.2,73.0,30.03,NNE,19,1.0,7.0,85,0.00,,,0.00,weatherlink.com 1.10,2013-08-10 16:32:00,
2013-08-10 12:47:00,79.2,74.0,30.03,ENE,58,2.0,8.0,84,0.00,,,0.00,weatherlink.com 1.10,2013-08-10 16:47:00,
2013-08-10 13:02:00,80.2,74.0,30.03,ENE,78,1.0,6.0,81,0.00,,,0.00,weatherlink.com 1.10,2013-08-10 17:02:00,
2013-08-10 13:17:00,81.0,74.0,30.02,NE,48,2.0,7.0,79,0.00,,,0.00,weatherlink.com 1.10,2013-08-10 17:17:00,
2013-08-10 13:32:00,80.5,74.0,30.01,NE,55,0.0,8.0,80,0.00,,,0.00,weatherlink.com 1.10,2013-08-10 17:32:00,
2013-08-10 13:48:00,82.1,74.0,30.01,ENE,67,2.0,6.0,75,0.00,,,0.00,weatherlink.com 1.10,2013-08-10 17:48:00,
2013-08-10 14:02:00,80.8,73.0,30.01,North,9,2.0,6.0,77,0.00,,,0.00,weatherlink.com 1.10,2013-08-10 18:02:00,
2013-08-10 14:17:00,81.4,73.0,30.00,NNE,19,1.0,7.0,76,0.00,,,0.00,weatherlink.com 1.10,2013-08-10 18:17:00,
2013-08-10 14:32:00,81.5,74.0,30.00,North,5,1.0,6.0,79,0.00,,,0.00,weatherlink.com 1.10,2013-08-10 18:32:00,
2013-08-10 14:47:00,82.5,74.0,30.00,NE,42,2.0,7.0,75,0.00,,,0.00,weatherlink.com 1.10,2013-08-10 18:47:00,
2013-08-10 15:02:00,81.5,74.0,30.00,ENE,60,5.0,7.0,78,0.00,,,0.00,weatherlink.com 1.10,2013-08-10 19:02:00,
2013-08-10 15:18:00,81.2,73.0,29.99,NNW,333,3.0,5.0,77,0.00,,,0.00,weatherlink.com 1.10,2013-08-10 19:18:00,
2013-08-10 15:33:00,81.8,74.0,29.98,NNE,20,1.0,8.0,78,0.00,,,0.00,weatherlink.com 1.10,2013-08-10 19:33:00,
2013-08-10 15:48:00,82.0,74.0,29.97,ENE,63,2.0,10.0,77,0.00,,,0.00,weatherlink.com 1.10,2013-08-10 19:48:00,
2013-08-10 16:03:00,82.3,74.0,29.98,ENE,65,3.0,6.0,77,0.00,,,0.00,weatherlink.com 1.10,2013-08-10 20:03:00,
2013-08-10 16:18:00,82.2,74.0,29.97,NNE,19,3.0,7.0,76,0.00,,,0.00,weatherlink.com 1.10,2013-08-10 20:18:00,
2013-08-10 16:33:00,82.3,74.0,29.97,North,5,1.0,5.0,76,0.00,,,0.00,weatherlink.com 1.10,2013-08-10 20:33:00,
2013-08-10 16:48:00,81.4,74.0,29.96,NNE,30,0.0,6.0,78,0.00,,,0.00,weatherlink.com 1.10,2013-08-10 20:48:00,
2013-08-10 17:03:00,82.4,75.0,29.97,ENE,65,2.0,4.0,77,0.00,,,0.00,weatherlink.com 1.10,2013-08-10 21:03:00,
2013-08-10 17:18:00,81.6,75.0,29.98,WNW,291,5.0,6.0,79,0.00,,,0.00,weatherlink.com 1.10,2013-08-10 21:18:00,
2013-08-10 17:33:00,76.5,71.0,30.00,NNE,19,5.0,7.0,82,0.00,,,0.00,weatherlink.com 1.10,2013-08-10 21:33:00,
2013-08-10 17:48:00,74.2,70.0,29.99,South,186,2.0,13.0,87,0.00,,,0.00,weatherlink.com 1.10,2013-08-10 21:48:00,
2013-08-10 18:03:00,73.4,70.0,29.99,ESE,120,0.0,5.0,88,0.00,,,0.00,weatherlink.com 1.10,2013-08-10 22:03:00,
2013-08-10 18:18:00,72.5,70.0,30.00,NNW,344,0.0,2.0,91,0.00,,,0.00,weatherlink.com 1.10,2013-08-10 22:18:00,
2013-08-10 18:33:00,73.0,71.0,30.00,NNW,344,0.0,1.0,92,0.00,,,0.00,weatherlink.com 1.10,2013-08-10 22:33:00,
2013-08-10 18:48:00,73.5,71.0,30.00,SSE,149,0.0,1.0,91,0.00,,,0.00,weatherlink.com 1.10,2013-08-10 22:48:00,
2013-08-10 19:03:00,74.4,71.0,29.99,SSE,149,0.0,1.0,90,0.00,,,0.00,weatherlink.com 1.10,2013-08-10 23:03:00,
2013-08-10 19:18:00,75.6,72.0,29.99,SSE,149,0.0,1.0,87,0.00,,,0.00,weatherlink.com 1.10,2013-08-10 23:18:00,
2013-08-10 19:33:00,76.6,71.0,30.00,SSE,149,0.0,0.0,82,0.00,,,0.00,weatherlink.com 1.10,2013-08-10 23:33:00,
2013-08-10 19:48:00,76.3,71.0,30.00,SSE,149,0.0,1.0,83,0.00,,,0.00,weatherlink.com 1.10,2013-08-10 23:48:00,
2013-08-10 20:03:00,75.4,71.0,30.00,SSE,149,0.0,1.0,85,0.00,,,0.00,weatherlink.com 1.10,2013-08-11 00:03:00,
2013-08-10 20:18:00,74.5,70.0,30.01,SSE,149,1.0,1.0,86,0.00,,,0.00,weatherlink.com 1.10,2013-08-11 00:18:00,
2013-08-10 20:33:00,73.6,70.0,30.02,SSE,149,1.0,2.0,87,0.00,,,0.00,weatherlink.com 1.10,2013-08-11 00:33:00,
2013-08-10 20:48:00,73.0,69.0,30.01,SSE,149,0.0,3.0,88,0.00,,,0.00,weatherlink.com 1.10,2013-08-11 00:48:00,
2013-08-10 21:03:00,72.8,70.0,30.00,SSW,196,1.0,4.0,89,0.00,,,0.00,weatherlink.com 1.10,2013-08-11 01:03:00,
2013-08-10 21:18:00,72.4,70.0,30.01,SSE,160,1.0,3.0,92,0.00,,,0.00,weatherlink.com 1.10,2013-08-11 01:18:00,
2013-08-10 21:34:00,71.8,69.0,30.02,SSW,205,1.0,3.0,91,0.00,,,0.00,weatherlink.com 1.10,2013-08-11 01:34:00,
2013-08-10 21:48:00,71.6,69.0,30.02,SSW,205,0.0,2.0,90,0.00,,,0.00,weatherlink.com 1.10,2013-08-11 01:48:00,
2013-08-10 22:03:00,71.9,69.0,30.02,NE,46,0.0,5.0,91,0.00,,,0.00,weatherlink.com 1.10,2013-08-11 02:03:00,
2013-08-10 22:18:00,71.6,69.0,30.02,NE,46,0.0,1.0,92,0.00,,,0.00,weatherlink.com 1.10,2013-08-11 02:18:00,
2013-08-10 22:33:00,71.2,69.0,30.02,ESE,103,0.0,2.0,94,0.00,,,0.00,weatherlink.com 1.10,2013-08-11 02:33:00,
2013-08-10 22:48:00,70.9,68.0,30.02,ESE,103,0.0,2.0,91,0.00,,,0.00,weatherlink.com 1.10,2013-08-11 02:48:00,
2013-08-10 23:03:00,70.8,68.0,30.02,ESE,103,0.0,2.0,92,0.00,,,0.00,weatherlink.com 1.10,2013-08-11 03:03:00,
2013-08-10 23:18:00,70.6,68.0,30.03,SE,145,1.0,3.0,92,0.00,,,0.00,weatherlink.com 1.10,2013-08-11 03:18:00,
2013-08-10 23:33:00,70.8,68.0,30.03,SE,146,1.0,2.0,91,0.00,,,0.00,weatherlink.com 1.10,2013-08-11 03:33:00,
2013-08-10 23:48:00,71.0,68.0,30.02,SE,146,1.0,2.0,91,0.00,,,0.00,weatherlink.com 1.10,2013-08-11 03:48:00,